SL-14 R/B, 17178

Orbit data source: Space-Track

SL-14 R/B, 17178 is space debris in LEO originally from a launch on Tue, 02 Dec 1986 UTC launched from the Plesetsk Missile And Space Complex (PKMTR). Debris objects in space refer to the collection of defunct objects orbiting the Earth. Examples of debris include non-operational satellites, rocket bodies, and fragments generated from explosions, collisions, or faulty payload assembly.

Loading next visibility...
Identifier
17178, 1986-094B
Orbit
LEO
Country
Flag of CISCIS
Related business
Manufacturer
Yuzhnoe
Mission
Spacecraft
Bus & Motor
S5M, Unknown motor
Mass
1,600 kg wet, 1,600 kg dry
Launch date (UTC)
1986-12-02 (39 years ago)
Launch vehicle
Unknown
Launch site
Plesetsk Missile And Space Complex (PKMTR)
Object type
Payload
Rocket body
Debris
Shape & HBR
Cyl, 1.4 m
Radar Cross Section
7.351 m², Large (>1 m²)

Expand to show TLE details & history
Last TLE update: 17 hours ago

TLE from 17 hours ago
0 SL-14 R/B
1 17178U 86094B   26150.57592154  .00000023  00000-0  97685-4 0  9997
2 17178  82.6083  13.2119 0002994 138.8425 281.8975 12.42050462790423
Epoch: 2026-05-30T13:49Z
TLE epoch observation values (Epoch: 2026-05-30T13:49:19.621Z)
Latitude
59.95584°
Longitude
-69.31257°
Altitude
1,507.582 km
Speed
7.117 km/s
True Right ascension
01h 44m 26s
True Declination
59° 49' 15"
Sunlit
Object was in daylight at epoch
Visualization orbit readout
Latitude
Unknown
Longitude
Unknown
Altitude
Unknown
Speed
Unknown
Apparent Right ascension
Unknown
Apparent Declination
Unknown
Sunlit
N/A
Visualization observer readout
Local Sidereal Time
16:15:14
Azimuth
Unknown
Elevation
Unknown
Doppler factor
Unknown
Orbital elements
Apogee altitude
1,497.629 km
Perigee altitude
1,492.914 km
Semi-major axis
7,873.408 km
Eccentricity
0.0003
Inclination
82.6083°
RAAN
13.2119°
Arg. of periapsis
138.8425°
True anomaly
281.86393°
Mean anomaly
281.8975°
Eccentric anomaly
281.88071°
Mean motion
3.1067 °/min
Orbital period
115.88 mins
BSTAR
0.000097685
Loading maneuver chart data...
Computing Atmospheric mass density...
Loading historical data...
Loading historical data...
Loading historical data...
Loading historical data...
Loading historical data...
Loading historical data...
Loading historical data...
Other satellites on launch #94 in the year 1986 (1986-12-02 UTC)

Documentation

Showing up to 5 results
|